Weather in Rozpasiivka

Ukraine / Luhansk Region     49°49′55″N   38°23′21″E
temp.,
°C
wind,
m/s
gust,
m/s
humid.,
%
clouds,
%
prec.,
mm/h
press.,
hPa
HPBL,
m
24 may, tue
tue2400:00+8ene237212 0.0 100951
03:00+6e227533 0.0 101012
06:00+7nnw227429 0.0 101068
09:00+13nw33553 0.0 10101114
12:00+15nw3444100 0.0 10102245
15:00+15w5546100 0.0 10101818
18:00+15w465389 0.0 1011715
21:00+12w486099 0.0 1012215
25 may, wed
wed2500:00+8wnw3576100 0.0 101365
03:00+8wnw357611 0.0 101478
06:00+8wnw36855 0.0 1015147
09:00+14wnw56555 0.0 1016801
12:00+17wnw575097 0.1 10162143
15:00+16nw466172 0.3 10161002
18:00+17nw56527 0.0 10161172
21:00+11nw22681 0.0 101810
26 may, thu
thu2600:00+11sw11666 0.0 101812
03:00+10sw347593 0.0 101863
06:00+11wsw37805 0.0 1018167
09:00+17wsw575789 0.0 1017657
12:00+20sw6843100 0.0 10152335
15:00+21sw81250100 0.0 10132728
18:00+12wsw81688100 1.9 1014984
21:00+12wsw71491100 2.1 1014712
27 may, fri
fri2700:00+11sw511965 0.0 1013279
03:00+10sw512977 0.0 1013258
06:00+11wsw513925 0.0 1013356
09:00+17w812665 0.2 10121266
12:00+19w8116365 0.9 10121549
15:00+20wnw8106138 1.7 10121655
18:00+18wnw59685 0.3 10121188
21:00+13wsw34845 0.4 101359
28 may, sat
sat2800:00+12sw349088 0.0 101357
03:00+11ssw411905 0.0 1011201
06:00+14ssw614855 0.0 1009381
09:00+19wsw9146770 0.0 10091119
12:00+17wsw7117679 0.1 1010967
15:00+13wnw3692100 1.3 1011296
18:00+16wsw368184 0.6 1011513
21:00+14wsw348694 0.7 101365